Miscellaneous Local Product
Issued by NWS North Platte, NE

Home | Current Version | Previous Version | Graphics & Text | Print | Product List | Glossary On
Versions: 1 2 3 4 5 6 7 8 9 10 11 12 13 14 15 16 17 18 19 20 21 22 23 24 25 26 27 28 29 30 31 32 33 34 35 36 37 38 39 40 41 42 43 44 45 46 47 48 49 50
555
AXUS43 KLBF 261110
MISLBF


WESTERN AND NORTH CENTRAL NEBRASKA HOURLY WEATHER ROUNDUP
NATIONAL WEATHER SERVICE NORTH PLATTE NE
600 AM CDT MON JUN 26 2017

NOTE: "FAIR" INDICATES FEW OR NO CLOUDS BELOW 12,000 FEET WITH NO
SIGNIFICANT WEATHER AND/OR OBSTRUCTIONS TO VISIBILITY.

NOTE: STATIONS NOT REPORTING VARIABLES SUCH AS SKY/WEATHER OR
PRESSURE ARE PROVIDED BY RAWS AND APRS NETWORKS AND ARE NOT UNDER
NATIONAL WEATHER SERVICE QUALITY CONTROL.

...OBSERVATIONS IN AND NEAR THE EASTERN PANHANDLE OF NEBRASKA...

CITY           SKY/WX    TMP DP  RH WIND       PRES   REMARKS
PINE RIDGE     CLEAR     45  40  82 NE5       30.25R
GORDON         FAIR      44  39  83 NE3       30.24R
CHADRON        CLEAR     41  37  86 CALM      30.25R
ALLIANCE       CLEAR     46  46 100 N3        30.23R FOG
SIDNEY         PTCLDY    53  52  96 W8        30.25R
CRESCENT LAKE    N/A     54  54  99 CALM        N/A
$$

...OBSERVATIONS IN NORTHERN NEBRASKA AND FAR SOUTHERN SOUTH DAKOTA...

CITY           SKY/WX    TMP DP  RH WIND       PRES   REMARKS
WINNER         FAIR      50  45  83 CALM      30.23R
VALENTINE      CLEAR     54  41  61 NE9       30.22R
THEDFORD       PTCLDY    55  53  93 CALM      30.21S
AINSWORTH      CLEAR     47  46  93 NE5       30.21R
O`NEILL        PTCLDY    50  49  96 CALM      30.19R
ORD            PTCLDY    55  51  86 CALM      30.18S
BROKEN BOW     CLOUDY    58  54  86 SW8       30.20S
VALENTINE NWR    N/A     51  45  79 N3          N/A
HALSEY           N/A     55  53  92 SW5         N/A
BUTTE            N/A     53  46  77 NE9G17      N/A
CHAMBERS         N/A     53  47  82 CALM        N/A
EWING            N/A     54  50  87 CALM        N/A
$$

...OBSERVATIONS IN SOUTHWEST NEBRASKA AND FAR NORTHEAST COLORADO...

CITY           SKY/WX    TMP DP  RH WIND       PRES   REMARKS
WRAY           FAIR     N/A N/A N/A W5        30.24S
IMPERIAL       FOG       51  49  92 CALM      30.23S VSB 3/4
OGALLALA       PTCLDY    52  51  95 NE5       30.22S
NORTH PLATTE   CLOUDY    59  58  96 S5        30.22S
MCCOOK         CLOUDY    60  58  92 S7        30.23S
LEXINGTON      CLOUDY    61  57  87 SW10      30.22S
STAPLETON        N/A     54  52  93 CALM        N/A
GOTHENBURG       N/A     58  55  90 SW3         N/A
CALLAWAY         N/A     56  55  95 SW8         N/A
$$

...OBSERVATIONS IN CENTRAL LINCOLN COUNTY AREA...

CITY           SKY/WX    TMP DP  RH WIND       PRES   REMARKS
N.P. AIRPORT   CLOUDY    59  58  96 S5        30.22S
N.P. DOWNTOWN    N/A     57  54  90 CALM        N/A
N.P. SOUTHEAST   N/A     57  54  91 CALM        N/A
N.P. HILLCREST   N/A     55  53  95 CALM        N/A
$$

...SOME OBSERVATIONS FROM AROUND THE REGION...

CITY           SKY/WX    TMP DP  RH WIND       PRES   REMARKS
DENVER         PTCLDY    56  52  86 S6        30.28S
LIMON          CLOUDY    57  57 100 S8        30.32S
ASPEN          CLOUDY    47  32  56 SW7       30.41R
LARAMIE        CLEAR     41  40  96 S10       30.37R
CASPER         CLEAR     41  35  79 W5        30.28F
CHEYENNE       CLEAR     51  48  89 W9        30.31S
SCOTTSBLUFF    CLEAR     55  51  86 NE3       30.23R
GRAND ISLAND   CLEAR     59  56  89 W8        30.21R
OMAHA          TSTM      58  50  75 N6        30.21R
SIOUX FALLS    PTCLDY    49  49 100 CALM      30.21R
PIERRE         CLEAR     45  43  93 NE8       30.22S
RAPID CITY     CLEAR     46  36  68 W3        30.25S
BISMARCK       CLEAR     43  41  93 E3        30.26S
KANSAS CITY    PTCLDY    55  54  96 S7        30.20F
HILL CITY      CLOUDY    57  57 100 W5        30.23F
WICHITA        CLOUDY    63  55  75 E7        30.21S
DODGE CITY     CLOUDY    56  55  97 E3        30.23F FOG
OKLAHOMA CITY  MOCLDY    69  56  62 CALM      30.18F
DALLAS         CLOUDY    73  65  75 E6        30.12S
AMARILLO       CLOUDY    59  57  93 NW10      30.26S
$$




USA.gov is the U.S. government's official web portal to all federal, state and local government web resources and services.